Location: State Camp
(41.2367°N, 77.7828°W)
Time: 17:34:41
(UTC-05:00)

ADEOS Rocket - Visible Passes

Search period start: 31 January 2015 00:00
Search period end: 10 February 2015 00:00
Orbit: 860 x 1307 km, 98.7° (Epoch: 30 January)

Date Brightness Start Highest point End Pass type
(mag) Time Alt. Az. Time Alt. Az. Time Alt. Az.
31 Jan 4.0 18:43:07 20° E 18:45:14 25° ENE 18:50:19 10° N visible
31 Jan 3.6 20:30:02 52° WSW 20:30:22 52° W 20:36:34 10° NNW visible
01 Feb 4.7 17:55:51 10° ENE 17:57:10 11° NE 17:58:52 10° NE visible
01 Feb 2.9 19:40:04 51° SE 19:41:24 66° ENE 19:47:49 10° N visible
01 Feb 5.2 21:26:59 18° W 21:27:47 18° W 21:31:46 10° NW visible
02 Feb 6.6 06:50:27 10° ENE 06:52:27 11° E 06:55:09 10° ESE visible
02 Feb 3.8 18:50:04 20° ESE 18:52:54 29° ENE 18:58:24 10° N visible
02 Feb 3.9 20:36:59 40° SW 20:38:11 45° W 20:44:19 10° NNW visible
03 Feb 4.7 18:02:12 10° E 18:04:45 13° NE 18:07:44 10° NNE visible
03 Feb 2.9 19:46:59 42° SSE 19:49:08 77° ENE 19:55:43 10° N visible
03 Feb 5.4 21:33:54 14° WSW 21:35:44 15° W 21:39:08 10° NW visible
04 Feb 3.6 18:56:56 18° ESE 19:00:34 34° ENE 19:06:25 10° N visible
04 Feb 4.2 20:43:51 30° SW 20:46:02 39° W 20:52:03 10° NNW visible
05 Feb 4.5 18:09:00 10° E 18:12:22 16° NE 18:16:11 10° NNE visible
05 Feb 2.9 19:53:48 32° SSE 19:56:53 89° ENE 20:03:35 10° NNW visible
05 Feb 5.7 21:40:46 10° WSW 21:43:42 13° W 21:46:18 10° WNW visible
06 Feb 3.5 19:03:43 15° SE 19:08:14 39° ENE 19:14:26 10° N visible
06 Feb 4.5 20:50:38 21° SW 20:53:54 34° W 20:59:46 10° NNW visible
07 Feb 4.4 18:16:00 10° E 18:20:00 19° ENE 18:24:29 10° NNE visible
07 Feb 3.1 20:00:31 22° S 20:04:39 80° WSW 20:11:27 10° NNW visible
07 Feb 5.8 21:49:51 10° W 21:51:41 11° W 21:53:03 10° WNW visible
08 Feb 3.4 19:10:22 11° SE 19:15:56 46° ENE 19:22:25 10° N visible
08 Feb 4.7 20:57:16 13° SSW 21:01:47 29° W 21:07:26 10° NNW visible
09 Feb 4.3 18:23:07 10° ESE 18:27:38 22° ENE 18:32:41 10° NNE visible
09 Feb 3.3 20:07:04 14° S 20:12:27 69° W 20:19:18 10° NNW visible
